Regional Weather Roundup
Issued by NWS Northern Indiana

Home | Current Version | Previous Version | Text Only | Print | Product List | Glossary Off
Versions: 1 2 3 4 5 6 7 8 9 10 11 12 13 14 15 16 17 18 19 20 21 22 23 24 25 26 27 28 29 30 31 32 33 34 35 36 37 38 39 40 41 42 43 44 45 46 47 48 49 50

000
ASUS43 KIWX 030500
RWRIWX

KIWX WEATHER ROUNDUP
NATIONAL WEATHER SERVICE NORTHERN INDIANA
100 AM EDT FRI JUL 03 2015

NOTE: "FAIR" INDICATES FEW OR NO CLOUDS BELOW 12,000 FEET WITH NO
SIGNIFICANT WEATHER AND/OR OBSTRUCTIONS TO VISIBILITY.

* THESE STATIONS ARE NOT UNDER NWS QUALITY CONTROL. THEY ALSO MAY NOT
  REPORT WEATHER SUCH AS PRECIPITATION OR FOG.

INZ001>027-030600-
NORTHERN INDIANA

CITY           SKY/WX    TMP DP  RH WIND       PRES   REMARKS
SOUTH BEND     MOCLDY    59  55  87 N3        29.99S
GOSHEN         MOCLDY    61  55  81 E3        29.98S
MONTICELLO*    MOCLDY    64  59  84 NE5       29.95R
ANGOLA*          N/A     59  54  82 CALM      29.99S
FORT WAYNE     PTCLDY    61  54  77 E3        29.98S
PERU/GRISSOM   CLEAR     65  56  73 E8        29.95R

$$
INZ028>050-030600-
CENTRAL INDIANA

CITY           SKY/WX    TMP DP  RH WIND       PRES   REMARKS
LAFAYETTE      MOCLDY    67  58  72 NE10      29.93R
KOKOMO*        PTCLDY    64  55  72 E10       29.95S
MUNCIE*        CLEAR     65  58  78 E7        29.95S
INDIANAPOLIS   CLOUDY    72  61  68 E10       29.89S

$$
MIZ043>046-050>051-056>058-064>065-071>073-077>080-030600-
SOUTHWEST LOWER MICHIGAN

CITY           SKY/WX    TMP DP  RH WIND       PRES   REMARKS
BATTLE CREEK   CLEAR     61  51  70 NE7       30.01S
BENTON HARBOR  PTCLDY    53  50  89 CALM      29.99R
COLDWATER*     PTCLDY    59  53  80 E6        30.00S
HILLSDALE*     PTCLDY    57  56  99 E3        30.01S
HOLLAND        CLEAR     59  52  77 E3        30.02R
GRAND RAPIDS   CLEAR     57  49  74 E3        30.02R
KALAMAZOO      CLEAR     60  52  74 NE3       30.01R
STURGIS*       PTCLDY    59  54  82 E5        29.99S
THREE RIVERS*  FAIR      61  52  74 NE3       30.00R

$$
OHZ001>008-015>018-024>025-030600-
NORTHWEST OHIO

CITY           SKY/WX    TMP DP  RH WIND       PRES   REMARKS
DEFIANCE       MOCLDY    61  55  81 E5        29.99S
FINDLAY        CLOUDY    63  55  75 NE8       29.98S
TOLEDO EXPRESS PTCLDY    57  55  93 CALM      30.00R
TOLEDO METCALF CLEAR     62  56  80 NE3       30.00S
LIMA           PTCLDY    60  54  80 E7        29.97F

$$
AND FOR LAKE MICHIGAN COASTAL AND OPEN LAKE BUOY OBSERVATIONS

STATION/POSITION TEMP    WIND        PRES    VSBY  WAVE
                 AIR SEA DIR/SP/G                  HT/PER
                 (F)     (DEG/KT/KT) (MB)    (MI)  (FT/S)
CALUMET HARBOR    60     350/  5/  7   N/A
MICHIGAN CITY     60      30/ 10/ 11   N/A
BURNS HARBOR      62      70/ 10/ 11 1015.9F
SAINT JOSEPH      57      20/  1/  3   N/A
4 MI NW BRIDGMAN  59 62                N/A           3/ 5
MICHIGAN CITY     62 63   70/ 10/ 14   N/A           4/ 5

$$
&&


USA.gov is the U.S. government's official web portal to all federal, state and local government web resources and services.